Hamilton Island, Queensland

1:48 AM AEST on August 29, 2016 (GMT +1000)
Hamilton Island

Weather History for 94368 - April, 2014

Change the Weather History Date:

Monday, April 28, 2014

  Actual Average Record
Temperature  
Mean Temperature 76 °F -  
Max Temperature 78 °F - - ()
Min Temperature 73 °F - - ()
Cooling Degree Days 10    
Growing Degree Days 26 (Base 50)    
Moisture  
Dew Point 68 °F    
Average Humidity 75    
Maximum Humidity 83    
Minimum Humidity 61    
Precipitation  
Precipitation 0.04 in - - ()
Sea Level Pressure  
Sea Level Pressure 29.98 in    
Wind  
Wind Speed 19 mph ()    
Max Wind Speed 26 mph    
Max Gust Speed -    
Visibility 6.2 miles    
Events      
T = Trace of Precipitation, MM = Missing Value Source: Averaged Metar Reports

Daily Weather History Graph

Daily Weather History Graph

Search for Another Location

Airport or City:

Trip Planner

Search our weather history database for the weather conditions in past years. The results will help you decide how hot, cold, wet, or windy it might be!

Date:

Astronomy

Apr. 28, 2014 Rise Set
Actual Time 6:19 AM AEST 5:43 PM AEST
Civil Twilight 5:56 AM AEST 6:06 PM AEST
Nautical Twilight 5:30 AM AEST 6:32 PM AEST
Astronomical Twilight 5:04 AM AEST 6:58 PM AEST
Moon 5:03 AM AEST 4:58 PM AEST
Length of Visible Light 12h 09m
Length of Day
11h 24m
Waning Crescent, 2% of the Moon is Illuminated
Apr 28
Waning Crescent
Apr 29
New
May 7
First Quarter
May 15
Full
May 21
Last Quarter

Hourly Weather History & Observations

Time (AEST) Temp. Dew Point Humidity Pressure Visibility Wind Dir Wind Speed Gust Speed Precip Events Conditions
12:00 AM 75 °F 66 °F 65% 29.99 in - ESE 16.1 mph - -  
12:00 AM 75.2 °F 66.2 °F 73% 29.98 in 6.2 mi ESE 16.1 mph - N/A   Unknown
12:30 AM 75.2 °F 64.4 °F 69% 29.98 in 6.2 mi SE 18.4 mph - N/A   Unknown
1:00 AM 75.2 °F 64.4 °F 69% 29.98 in 6.2 mi SE 18.4 mph - N/A   Unknown
1:30 AM 75.2 °F 64.4 °F 69% 29.98 in 6.2 mi SE 15.0 mph - N/A   Unknown
2:00 AM 75.2 °F 64.4 °F 69% 29.95 in 6.2 mi SE 13.8 mph - N/A   Unknown
2:30 AM 75.2 °F 64.4 °F 69% 29.95 in 6.2 mi SE 16.1 mph - N/A   Scattered Clouds
3:00 AM 75 °F 64 °F 61% 29.96 in - SE 19.6 mph - -  
3:00 AM 75.2 °F 64.4 °F 69% 29.95 in 6.2 mi SE 19.6 mph - N/A   Mostly Cloudy
3:30 AM 75.2 °F 66.2 °F 73% 29.95 in 6.2 mi SE 19.6 mph - N/A   Scattered Clouds
4:00 AM 73.4 °F 66.2 °F 78% 29.95 in 6.2 mi SSE 18.4 mph - N/A   Mostly Cloudy
4:30 AM 73.4 °F 66.2 °F 78% 29.95 in 6.2 mi SSE 19.6 mph - N/A   Unknown
5:00 AM 75.2 °F 66.2 °F 73% 29.95 in 6.2 mi SE 20.7 mph - N/A   Scattered Clouds
5:30 AM 75.2 °F 68.0 °F 78% 29.95 in 6.2 mi SE 19.6 mph - N/A   Unknown
6:00 AM 74 °F 68 °F 76% 29.97 in - SSE 18.4 mph - -  
6:00 AM 73.4 °F 68.0 °F 83% 29.98 in 6.2 mi SSE 18.4 mph - N/A   Scattered Clouds
6:30 AM 73.4 °F 68.0 °F 83% 29.98 in 6.2 mi SSE 18.4 mph - N/A   Unknown
7:00 AM 75.2 °F 68.0 °F 78% 29.98 in 6.2 mi SSE 17.3 mph - N/A   Scattered Clouds
7:30 AM 75.2 °F 68.0 °F 78% 30.01 in 6.2 mi SSE 17.3 mph - N/A   Unknown
8:00 AM 75.2 °F 68.0 °F 78% 30.01 in 6.2 mi SSE 19.6 mph - N/A   Scattered Clouds
8:35 AM 75.2 °F 69.8 °F 83% 30.01 in 6.2 mi SSE 20.7 mph - N/A   Mostly Cloudy
9:00 AM 76 °F 70 °F 76% 30.02 in - SSE 20.7 mph - -  
9:00 AM 77.0 °F 69.8 °F 78% 30.01 in 6.2 mi SSE 20.7 mph - N/A   Scattered Clouds
9:02 AM 77.0 °F 69.8 °F 78% 30.01 in 6.2 mi SSE 20.7 mph - N/A   Scattered Clouds
9:21 AM 77.0 °F 69.8 °F 78% 30.04 in 6.2 mi SSE 21.9 mph - N/A   Mostly Cloudy
9:30 AM 77.0 °F 69.8 °F 78% 30.04 in 6.2 mi SSE 21.9 mph - N/A   Scattered Clouds
10:00 AM 77.0 °F 69.8 °F 78% 30.04 in 6.2 mi SSE 21.9 mph - N/A   Mostly Cloudy
10:30 AM 77.0 °F 69.8 °F 78% 30.04 in 6.2 mi SSE 23.0 mph - N/A   Mostly Cloudy
11:00 AM 77.0 °F 69.8 °F 78% 30.01 in 6.2 mi SSE 20.7 mph - N/A   Scattered Clouds
11:30 AM 77.0 °F 68.0 °F 74% 30.01 in 6.2 mi SSE 21.9 mph - N/A   Mostly Cloudy
12:00 PM 77 °F 69 °F 70% 29.98 in - SSE 24.2 mph - -   Overcast
12:00 PM 77.0 °F 69.8 °F 78% 29.98 in 6.2 mi SSE 24.2 mph - N/A   Mostly Cloudy
12:30 PM 77.0 °F 69.8 °F 78% 29.98 in 6.2 mi SSE 24.2 mph - N/A   Scattered Clouds
1:00 PM 78.8 °F 69.8 °F 74% 29.95 in 6.2 mi SSE 25.3 mph - N/A   Scattered Clouds
1:30 PM 77.0 °F 69.8 °F 78% 29.95 in 6.2 mi SSE 25.3 mph - N/A   Scattered Clouds
2:00 PM 77.0 °F 69.8 °F 78% 29.95 in 6.2 mi SSE 25.3 mph - N/A   Mostly Cloudy
2:30 PM 77.0 °F 69.8 °F 78% 29.92 in 6.2 mi SSE 25.3 mph - N/A   Mostly Cloudy
3:00 PM 78 °F 69 °F 67% 29.93 in - SE 26.5 mph - -  
3:00 PM 77.0 °F 69.8 °F 78% 29.92 in 6.2 mi SE 26.5 mph - N/A   Scattered Clouds
3:30 PM 77.0 °F 71.6 °F 83% 29.92 in 6.2 mi SE 24.2 mph - N/A   Mostly Cloudy
4:00 PM 77.0 °F 69.8 °F 78% 29.92 in 6.2 mi SSE 23.0 mph - N/A   Mostly Cloudy
4:30 PM 77.0 °F 68.0 °F 74% 29.92 in 6.2 mi SE 25.3 mph - N/A   Scattered Clouds
5:00 PM 77.0 °F 68.0 °F 74% 29.95 in 6.2 mi SE 24.2 mph - N/A   Scattered Clouds
5:30 PM 77.0 °F 68.0 °F 74% 29.95 in - SE 24.2 mph - N/A   Scattered Clouds
6:00 PM 76 °F 68 °F 69% 29.96 in - SE 25.3 mph - -  
6:00 PM 77.0 °F 68.0 °F 74% 29.95 in 6.2 mi SE 25.3 mph - N/A   Unknown
6:30 PM 77.0 °F 68.0 °F 74% 29.95 in 6.2 mi SE 24.2 mph - N/A   Unknown
7:00 PM 75.2 °F 68.0 °F 78% 29.98 in 6.2 mi SE 24.2 mph - N/A   Scattered Clouds
7:30 PM 75.2 °F 68.0 °F 78% 29.98 in 6.2 mi SE 24.2 mph - N/A   Scattered Clouds
8:00 PM 75.2 °F 68.0 °F 78% 29.98 in 6.2 mi SE 23.0 mph - N/A   Unknown
8:30 PM 77.0 °F 68.0 °F 74% 30.01 in 6.2 mi SE 26.5 mph - N/A   Scattered Clouds
9:00 PM 76 °F 68 °F 70% 30.00 in - SE 25.3 mph - -  
9:00 PM 77.0 °F 68.0 °F 74% 30.01 in 6.2 mi SE 25.3 mph - N/A   Scattered Clouds
9:30 PM 75.2 °F 68.0 °F 78% 30.01 in 6.2 mi SE 24.2 mph - N/A   Scattered Clouds
10:00 PM 75.2 °F 68.0 °F 78% 30.01 in 6.2 mi SE 26.5 mph - N/A   Scattered Clouds
10:30 PM 77.0 °F 68.0 °F 74% 29.98 in 6.2 mi ESE 25.3 mph - N/A   Scattered Clouds
11:00 PM 75.2 °F 68.0 °F 78% 29.98 in 6.2 mi SE 24.2 mph - N/A   Scattered Clouds
11:30 PM 75.2 °F 68.0 °F 78% 29.98 in 6.2 mi SE 26.5 mph - N/A   Scattered Clouds